Location: St. Louis
(38.6270°N, 90.1994°W)
Time: 00:16:46
(UTC-06:00)

Courier 1B Rocket - Pass Details

Date: 02 December 2021
Orbit: 920 x 1202 km, 28.2° (Epoch: 16 January)

Event Time Altitude Azimuth Distance (km) Brightness Sun altitude
Rises 04:18:06 0° 258° (WSW) 3,567 - -31.2°
Reaches altitude 10° 04:21:44 10° 238° (WSW) 2,649 - -30.5°
Maximum altitude 04:25:28 16° 201° (SSW) 2,268 - -29.7°
Exits shadow 04:26:24 16° 191° (SSW) 2,306 6.9 -29.6°
Drops below altitude 10° 04:29:17 10° 165° (SSE) 2,733 7.5 -29.0°
Sets 04:33:08 0° 145° (SE) 3,738 8.6 -28.2°
